�N����,����,�~����,�C��,���x,�C��,����,���ϕ���,�ő�u�ԕ���,�ő厞����,���˗�,�I�_���x,�n�����x,�ő啗���N��,DTYPE
"21/06/19","00:10",0.4,20.1,93.6,998.6,292.6,0.8,1.2,271.5,0.00,19.1,22.4,"00:04:08",1
"21/06/19","00:20",0.6,20.1,93.7,998.9,300.3,0.7,1.2,332.2,0.00,19.1,22.5,"00:12:56",1
"21/06/19","00:30",0.2,20.1,93.8,998.9,303.4,0.8,1.3,337.1,0.00,19.1,22.5,"00:22:40",1
"21/06/19","00:40",0.6,20.2,93.9,998.9,268.1,0.8,1.3,323.4,0.00,19.2,22.6,"00:33:20",1
"21/06/19","00:50",0.4,20.2,93.9,998.6,330.4,0.5,1.2,333.2,0.00,19.2,22.4,"00:48:24",1
"21/06/19","01:00",0.4,20.3,94.1,998.2,231.4,0.6,1.4,216.7,0.00,19.4,22.3,"00:58:40",1
"21/06/19","01:10",0.2,20.2,94.1,998.2,239.3,1.0,1.8,225.8,0.00,19.3,22.4,"01:07:20",1
"21/06/19","01:20",0.4,20.2,94.2,998.2,16.8,0.3,0.9,206.5,0.00,19.3,22.3,"01:10:24",1
"21/06/19","01:30",0.2,20.1,94.3,998.4,343.1,0.7,1.9,307.9,0.00,19.2,22.4,"01:20:02",1
"21/06/19","01:40",0.2,20.2,94.4,997.9,303.4,0.8,1.4,305.4,0.00,19.3,22.4,"01:30:24",1
"21/06/19","01:50",0.4,20.2,94.4,998.2,14.4,0.5,1.6,328.4,0.00,19.3,22.1,"01:40:08",1
"21/06/19","02:00",0.2,20.2,94.6,997.9,192.6,0.7,1.7,209.4,0.00,19.3,22.3,"01:56:56",1
"21/06/19","02:10",0.2,20.1,94.6,997.4,288.4,1.0,2.0,322.4,0.00,19.2,22.3,"02:08:00",1
"21/06/19","02:20",0.2,20.0,94.7,997.2,321.9,0.6,1.8,345.6,0.00,19.2,22.4,"02:11:20",1
"21/06/19","02:30",0.2,20.0,94.8,997.2,302.7,0.5,1.2,314.7,0.00,19.2,22.1,"02:24:56",1
"21/06/19","02:40",0.2,20.0,94.9,997.2,280.2,0.6,1.4,321.0,0.00,19.2,22.1,"02:36:08",1
"21/06/19","02:50",0.2,20.1,94.9,997.2,317.9,0.3,1.3,261.3,0.00,19.3,22.3,"02:40:32",1
"21/06/19","03:00",0.2,20.0,95.0,997.0,320.4,0.6,1.0,337.7,0.00,19.2,21.9,"02:56:00",1
"21/06/19","03:10",0.2,20.0,95.1,997.0,296.1,0.7,1.0,296.5,0.00,19.2,22.1,"03:01:20",1
"21/06/19","03:20",0.2,20.0,95.0,997.2,266.2,0.6,1.0,263.3,0.00,19.2,22.2,"03:13:04",1
"21/06/19","03:30",0.6,19.9,95.1,997.2,288.7,0.6,1.0,317.4,0.00,19.1,22.2,"03:22:24",1
"21/06/19","03:40",0.6,19.9,95.2,997.2,329.2,0.6,1.2,341.3,0.00,19.1,22.1,"03:35:44",1
"21/06/19","03:50",0.8,19.9,95.3,997.0,331.0,0.7,1.1,320.6,0.00,19.2,22.1,"03:47:28",1
"21/06/19","04:00",0.6,19.9,95.3,997.0,332.2,0.2,1.0,331.5,0.00,19.2,22.0,"03:50:08",1
"21/06/19","04:10",0.2,19.8,95.3,997.0,290.6,0.3,0.6,271.2,0.00,19.1,22.0,"04:04:24",1
"21/06/19","04:20",0.6,19.6,95.4,997.2,215.2,0.1,0.5,199.3,0.00,18.9,22.0,"04:17:04",1
"21/06/19","04:30",0.2,19.6,95.4,997.2,235.3,0.3,0.8,248.6,0.00,18.9,22.1,"04:28:48",1
"21/06/19","04:40",0.2,19.6,95.5,997.0,280.5,0.5,0.9,303.3,0.00,18.9,21.9,"04:34:48",1
"21/06/19","04:50",1.0,19.6,95.5,997.0,272.3,0.3,0.8,271.1,0.00,18.9,21.9,"04:40:32",1
"21/06/19","05:00",1.2,19.6,95.5,997.0,247.5,0.6,1.0,235.0,0.00,18.9,22.0,"04:52:16",1
"21/06/19","05:10",0.6,19.6,95.6,997.0,289.6,0.7,1.1,310.2,0.00,18.9,22.0,"05:01:20",1
"21/06/19","05:20",0.4,19.7,95.6,997.2,334.4,0.3,1.7,267.8,0.00,19.0,21.9,"05:19:28",1
"21/06/19","05:30",0.8,19.7,95.7,997.0,267.4,0.7,1.8,241.5,0.00,19.0,21.9,"05:20:40",1
"21/06/19","05:40",0.8,19.7,95.7,997.0,316.4,0.8,1.4,315.1,0.00,19.0,22.0,"05:32:40",1
"21/06/19","05:50",0.6,19.7,95.8,997.0,313.1,1.3,3.1,333.6,0.00,19.1,21.8,"05:47:44",1
"21/06/19","06:00",0.6,19.5,95.9,997.0,356.2,0.6,1.7,317.3,0.00,18.9,21.9,"05:50:40",1
"21/06/19","06:10",0.2,19.6,95.9,997.0,108.6,0.3,1.1,18.5,0.00,19.0,21.8,"06:06:00",1
"21/06/19","06:20",0.4,19.6,96.0,997.2,356.3,0.5,1.1,321.0,0.00,19.0,21.8,"06:12:56",1
"21/06/19","06:30",0.4,19.6,96.0,997.0,88.3,0.2,0.9,112.7,0.00,19.0,21.8,"06:27:20",1
"21/06/19","06:40",0.4,19.5,96.0,997.2,353.3,0.3,1.1,258.2,0.00,18.9,21.9,"06:39:52",1
"21/06/19","06:50",0.4,19.6,96.1,997.4,272.4,0.5,1.1,334.7,0.00,19.0,21.9,"06:42:32",1
"21/06/19","07:00",0.6,19.6,96.1,997.2,310.5,0.5,0.9,10.3,0.00,19.0,21.8,"06:56:32",1
"21/06/19","07:10",0.2,19.7,96.2,996.7,330.1,0.6,1.3,334.9,0.01,19.1,21.8,"07:04:08",1
"21/06/19","07:20",0.2,19.7,96.1,997.4,306.3,0.8,1.2,338.0,0.00,19.1,21.6,"07:12:24",1
"21/06/19","07:30",0.0,19.7,96.2,997.0,286.9,0.8,1.7,239.8,0.00,19.1,21.8,"07:25:20",1
"21/06/19","07:40",0.0,19.7,96.2,997.0,287.3,0.6,1.4,307.6,0.00,19.1,21.7,"07:39:52",1
"21/06/19","07:50",0.2,19.8,96.3,997.0,276.7,0.7,1.6,323.8,0.01,19.2,21.8,"07:40:08",1
"21/06/19","08:00",0.0,19.9,96.2,996.7,299.7,0.3,0.8,256.8,0.02,19.3,21.8,"07:53:12",1
"21/06/19","08:10",0.0,19.9,96.3,997.0,242.4,0.7,1.9,238.1,0.02,19.3,21.7,"08:08:08",1
"21/06/19","08:20",0.0,20.0,96.3,997.2,264.3,0.7,1.4,238.1,0.02,19.4,21.7,"08:12:32",1
"21/06/19","08:30",0.0,20.0,96.3,997.0,291.8,1.0,1.4,337.1,0.02,19.4,21.6,"08:24:40",1
"21/06/19","08:40",0.0,20.1,96.3,996.7,269.3,0.6,1.1,242.4,0.04,19.5,21.7,"08:38:24",1
"21/06/19","08:50",0.0,20.4,96.4,996.7,253.2,0.7,1.3,237.6,0.08,19.8,21.7,"08:43:20",1
"21/06/19","09:00",0.0,20.6,96.3,996.7,256.1,0.3,0.9,251.8,0.07,20.0,21.7,"08:59:44",1
"21/06/19","09:10",0.0,20.6,96.3,996.3,262.7,0.5,1.1,229.4,0.05,20.0,21.8,"09:06:32",1
"21/06/19","09:20",0.0,20.6,96.3,996.5,244.6,0.6,1.6,237.2,0.06,20.0,21.8,"09:12:08",1
"21/06/19","09:30",0.0,20.7,96.3,996.5,298.4,0.8,1.4,320.3,0.07,20.1,21.7,"09:23:44",1
"21/06/19","09:40",0.0,20.8,96.4,996.5,307.6,0.5,1.6,12.1,0.06,20.2,21.7,"09:30:48",1
"21/06/19","09:50",0.0,20.9,96.3,996.3,317.9,0.7,1.6,343.3,0.09,20.3,21.7,"09:42:24",1
"21/06/19","10:00",0.0,21.0,96.3,996.5,298.5,0.7,1.4,339.6,0.12,20.4,21.8,"09:54:08",1
"21/06/19","10:10",0.2,21.0,96.3,996.3,313.9,0.8,1.4,345.7,0.07,20.4,22.0,"10:01:20",1
"21/06/19","10:20",0.2,21.2,96.3,996.7,286.3,0.5,1.1,255.2,0.10,20.6,21.9,"10:16:56",1
"21/06/19","10:30",0.0,21.4,96.3,996.3,300.4,0.6,1.2,307.8,0.13,20.8,21.8,"10:23:36",1
"21/06/19","10:40",0.2,21.4,96.1,996.0,204.0,0.2,1.0,200.1,0.12,20.8,21.8,"10:31:52",1
"21/06/19","10:50",0.0,21.5,96.2,995.8,71.7,0.3,1.2,347.2,0.07,20.9,21.9,"10:42:24",1
"21/06/19","11:00",0.0,21.5,96.1,996.0,69.2,0.3,1.1,69.8,0.04,20.9,21.8,"10:57:04",1
"21/06/19","11:10",0.0,21.5,96.0,995.8,94.9,0.3,1.4,37.1,0.04,20.9,21.9,"11:02:08",1
"21/06/19","11:20",0.0,21.4,96.0,995.1,33.7,0.6,1.4,354.8,0.03,20.8,22.1,"11:19:36",1
"21/06/19","11:30",0.0,21.3,96.1,995.6,18.4,0.5,1.6,76.8,0.02,20.7,22.0,"11:24:40",1
"21/06/19","11:40",0.0,21.4,96.1,995.8,231.7,0.8,2.1,166.9,0.03,20.8,21.9,"11:32:48",1
"21/06/19","11:50",0.0,21.5,96.2,995.6,308.8,0.8,1.3,334.2,0.06,20.9,22.0,"11:46:08",1
"21/06/19","12:00",0.0,21.6,96.0,995.3,309.5,0.8,1.6,327.6,0.07,21.0,22.1,"11:58:56",1
"21/06/19","12:10",0.0,21.4,96.2,995.1,322.8,1.5,2.5,338.2,0.07,20.8,22.0,"12:04:00",1
"21/06/19","12:20",0.0,21.6,96.1,995.3,307.4,1.0,1.7,331.7,0.07,21.0,22.1,"12:12:16",1
"21/06/19","12:30",0.2,21.4,96.0,995.6,286.3,1.0,1.6,335.8,0.05,20.8,22.1,"12:22:00",1
"21/06/19","12:40",0.0,21.4,96.0,995.3,304.0,0.5,1.3,339.9,0.03,20.8,22.1,"12:34:56",1
"21/06/19","12:50",0.4,21.2,96.0,995.1,113.0,0.2,0.6,265.3,0.01,20.6,22.1,"12:40:16",1
"21/06/19","13:00",0.2,21.2,96.0,995.3,211.7,0.2,0.9,180.3,0.03,20.6,22.0,"12:56:00",1
"21/06/19","13:10",0.2,21.2,96.0,994.8,343.0,0.6,1.2,358.8,0.03,20.6,22.0,"13:08:48",1
"21/06/19","13:20",0.2,21.3,96.0,994.8,34.7,0.6,1.3,1.9,0.03,20.7,22.0,"13:12:56",1
"21/06/19","13:30",0.4,21.5,96.0,994.8,54.4,0.8,1.4,28.5,0.04,20.9,22.1,"13:26:40",1
"21/06/19","13:40",0.2,21.4,96.0,994.8,72.2,1.0,2.6,40.6,0.05,20.8,22.2,"13:39:52",1
"21/06/19","13:50",0.4,21.4,95.9,994.4,111.2,0.8,1.3,94.4,0.05,20.8,22.2,"13:42:32",1
"21/06/19","14:00",0.4,21.4,96.0,994.6,158.1,0.3,1.1,220.2,0.03,20.8,22.1,"13:51:52",1
"21/06/19","14:10",0.6,21.0,95.8,994.6,173.7,0.7,1.6,201.1,0.02,20.3,22.2,"14:07:36",1
"21/06/19","14:20",0.4,20.8,96.0,994.4,219.0,0.5,1.4,219.5,0.02,20.2,22.2,"14:10:16",1
"21/06/19","14:30",0.4,20.7,96.1,994.4,199.2,1.0,1.6,225.7,0.04,20.1,22.2,"14:21:12",1
"21/06/19","14:40",0.0,21.1,96.1,994.4,199.2,0.6,1.4,185.9,0.06,20.5,22.1,"14:32:00",1
"21/06/19","14:50",0.0,21.4,96.1,994.4,152.6,0.5,1.1,88.6,0.10,20.8,22.2,"14:45:20",1
"21/06/19","15:00",0.2,21.5,96.0,994.1,351.5,0.5,1.2,331.0,0.07,20.9,22.1,"14:55:36",1
"21/06/19","15:10",0.0,21.5,95.9,994.1,301.3,0.8,1.7,348.6,0.06,20.9,22.1,"15:05:16",1
"21/06/19","15:20",0.0,21.6,96.0,993.9,311.8,0.6,1.4,351.8,0.07,21.0,22.2,"15:11:04",1
"21/06/19","15:30",0.0,21.7,95.9,994.1,291.6,0.6,1.0,308.8,0.07,21.1,22.2,"15:25:36",1
"21/06/19","15:40",0.0,21.7,96.0,993.9,322.5,0.7,1.3,331.4,0.07,21.1,22.3,"15:35:20",1
"21/06/19","15:50",0.0,21.7,95.8,994.1,322.0,0.8,1.8,343.9,0.06,21.0,22.1,"15:49:28",1
"21/06/19","16:00",0.0,21.8,95.7,994.1,298.7,0.3,1.1,340.0,0.04,21.1,22.3,"15:50:40",1
"21/06/19","16:10",0.0,21.9,95.6,994.4,267.5,0.5,1.0,309.6,0.03,21.2,22.2,"16:02:00",1
"21/06/19","16:20",0.0,21.8,95.5,994.1,217.6,0.2,0.8,159.8,0.02,21.1,22.1,"16:18:56",1
"21/06/19","16:30",0.0,21.9,95.7,994.1,192.1,0.3,1.1,268.4,0.05,21.2,22.2,"16:29:36",1
"21/06/19","16:40",0.0,21.9,95.6,993.9,260.8,0.7,1.2,264.7,0.07,21.2,22.3,"16:33:52",1
"21/06/19","16:50",0.0,21.8,95.6,994.1,253.9,0.7,1.3,269.0,0.09,21.1,22.2,"16:41:36",1
"21/06/19","17:00",0.0,22.1,95.7,993.9,278.5,0.6,1.2,314.5,0.09,21.4,22.1,"16:56:48",1
"21/06/19","17:10",0.0,22.1,95.5,993.9,232.3,0.7,1.3,225.5,0.09,21.4,22.4,"17:04:08",1
"21/06/19","17:20",0.0,22.3,95.5,993.9,285.6,0.5,1.1,322.0,0.07,21.6,22.3,"17:10:02",1
"21/06/19","17:30",0.0,22.3,95.4,993.7,304.3,0.7,1.3,335.1,0.04,21.6,22.6,"17:22:40",1
"21/06/19","17:40",0.0,22.3,95.4,993.7,288.4,0.6,1.2,301.5,0.04,21.6,22.2,"17:32:08",1
"21/06/19","17:50",0.0,22.3,95.3,993.9,268.5,0.6,1.2,298.8,0.03,21.6,22.3,"17:42:48",1
"21/06/19","18:00",0.0,22.4,95.3,993.9,270.5,0.5,0.9,269.4,0.02,21.7,22.3,"17:54:48",1
"21/06/19","18:10",0.0,22.4,95.3,993.9,287.8,0.7,1.3,306.8,0.02,21.7,22.4,"18:08:24",1
"21/06/19","18:20",0.0,22.3,95.3,993.9,299.1,0.8,1.2,317.7,0.01,21.6,22.5,"18:17:20",1
"21/06/19","18:30",0.0,22.3,95.3,994.4,309.5,0.8,1.2,316.5,0.01,21.6,22.3,"18:24:32",1
"21/06/19","18:40",0.0,22.3,95.3,994.1,325.3,0.6,1.1,339.7,0.01,21.6,22.5,"18:30:56",1
"21/06/19","18:50",0.0,22.3,95.0,993.7,287.9,0.3,0.9,334.6,0.00,21.5,22.2,"18:48:24",1
"21/06/19","19:00",0.0,21.9,95.2,994.6,186.7,0.3,0.9,61.6,0.00,21.1,22.5,"18:54:56",1
"21/06/19","19:10",0.0,21.9,95.2,994.6,75.7,0.3,1.0,118.7,0.00,21.1,22.4,"19:00:40",1
"21/06/19","19:20",0.0,21.9,95.2,994.8,355.9,0.6,1.4,358.2,0.00,21.1,22.5,"19:19:12",1
"21/06/19","19:30",0.4,21.1,95.2,994.8,356.2,1.6,4.1,84.6,0.00,20.3,22.6,"19:25:36",1
"21/06/19","19:40",0.0,20.9,95.2,994.8,347.3,1.2,2.8,354.3,0.00,20.1,22.5,"19:38:56",1
"21/06/19","19:50",0.0,20.6,95.2,995.1,318.6,1.3,2.7,337.0,0.00,19.8,22.3,"19:40:16",1
"21/06/19","20:00",0.0,20.5,95.2,995.1,310.7,1.1,2.0,313.5,0.00,19.7,22.2,"19:55:36",1
"21/06/19","20:10",0.0,20.5,95.1,995.1,330.6,1.5,2.7,348.6,0.00,19.7,22.5,"20:05:52",1
"21/06/19","20:20",0.0,20.6,95.0,995.1,335.2,0.6,2.0,336.2,0.00,19.8,22.4,"20:10:24",1
"21/06/19","20:30",0.0,20.5,95.0,995.1,298.2,0.7,1.0,308.0,0.00,19.7,22.3,"20:24:16",1
"21/06/19","20:40",0.0,20.4,94.9,995.1,296.5,1.0,2.2,336.0,0.00,19.6,22.1,"20:37:04",1
"21/06/19","20:50",0.0,20.5,95.0,995.1,317.1,1.0,1.4,333.1,0.00,19.7,22.2,"20:44:16",1
"21/06/19","21:00",0.0,20.5,95.0,995.3,332.9,1.2,2.0,348.3,0.00,19.7,22.2,"20:58:56",1
"21/06/19","21:10",0.0,20.4,94.9,995.6,329.2,0.7,1.3,348.7,0.00,19.6,22.2,"21:08:24",1
"21/06/19","21:20",0.0,20.4,94.9,995.6,355.9,0.2,0.9,310.4,0.00,19.6,22.5,"21:11:12",1
"21/06/19","21:30",0.0,20.3,94.9,995.8,288.0,0.3,0.9,306.2,0.00,19.5,22.3,"21:27:20",1
"21/06/19","21:40",0.0,20.4,95.0,995.6,296.4,1.0,1.6,325.7,0.00,19.6,22.3,"21:38:56",1
"21/06/19","21:50",0.0,20.4,95.0,995.6,314.8,0.8,1.6,316.8,0.00,19.6,22.2,"21:41:12",1
"21/06/19","22:00",0.0,20.3,95.0,995.8,309.7,0.8,1.2,316.6,0.00,19.5,22.2,"21:51:52",1
"21/06/19","22:10",0.0,20.3,95.0,995.8,323.9,0.7,1.1,324.3,0.00,19.5,22.1,"22:04:48",1
"21/06/19","22:20",0.0,20.3,95.0,995.8,327.0,0.2,0.8,333.4,0.00,19.5,22.2,"22:15:36",1
"21/06/19","22:30",0.0,20.2,95.0,996.0,283.9,0.6,1.4,318.6,0.00,19.4,22.3,"22:28:00",1
"21/06/19","22:40",0.0,20.3,95.1,996.3,319.7,1.1,2.4,313.3,0.00,19.5,22.1,"22:39:04",1
"21/06/19","22:50",0.0,20.0,95.1,996.0,313.1,0.8,1.8,329.6,0.00,19.2,22.2,"22:45:04",1
"21/06/19","23:00",0.0,19.8,95.2,996.0,271.3,0.5,1.3,246.5,0.00,19.0,22.2,"22:59:28",1
"21/06/19","23:10",0.0,19.8,95.3,996.0,339.0,0.7,1.3,332.1,0.00,19.1,22.2,"23:01:20",1
"21/06/19","23:20",0.0,19.6,95.3,995.8,315.4,1.1,1.8,331.0,0.00,18.9,21.9,"23:14:16",1
"21/06/19","23:30",0.0,19.5,95.4,996.0,301.0,1.3,1.8,327.5,0.00,18.8,22.0,"23:25:04",1
"21/06/19","23:40",0.0,19.3,95.5,995.8,312.6,1.0,1.6,332.8,0.00,18.6,22.1,"23:31:52",1
"21/06/19","23:50",0.0,19.3,95.5,995.6,309.4,0.5,1.3,25.5,0.00,18.6,22.1,"23:46:48",1
"21/06/19","24:00",0.0,19.1,95.6,995.6,304.0,0.8,2.0,321.3,0.00,18.4,22.1,"23:57:44",1
